Total_Precipitation_Accumulation
1.21 1.08 1.00 0.89 0.80 0.66 0.55 0.56 0.62 0.55 0.51 0.45 0.38 0.34 0.34 0.28 0.22 0.20 0.19 0.22 0.23 0.32 0.42 0.49 0.47 0.45 0.46 0.48 0.52 0.53 0.50 0.45 0.42 0.41 0.40 0.38 0.37 0.37 0.39 0.39 0.39 0.39 0.42
1.32 1.25 1.06 0.92 0.84 0.75 0.62 0.54 0.57 0.63 0.60 0.56 0.51 0.44 0.42 0.37 0.29 0.25 0.23 0.26 0.27 0.31 0.40 0.44 0.48 0.53 0.60 0.66 0.68 0.66 0.60 0.55 0.53 0.52 0.51 0.48 0.45 0.42 0.42 0.42 0.41 0.42 0.45
1.39 1.35 1.19 0.97 0.88 0.89 0.81 0.70 0.68 0.71 0.67 0.56 0.49 0.49 0.46 0.39 0.33 0.30 0.28 0.28 0.28 0.30 0.39 0.45 0.44 0.48 0.62 0.72 0.77 0.78 0.71 0.64 0.62 0.60 0.57 0.55 0.52 0.50 0.52 0.52 0.49 0.46 0.46
1.54 1.50 1.36 1.13 1.09 1.14 1.06 0.91 0.81 0.74 0.68 0.61 0.52 0.51 0.47 0.43 0.37 0.36 0.33 0.31 0.30 0.31 0.39 0.47 0.44 0.44 0.54 0.65 0.78 0.88 0.86 0.79 0.73 0.67 0.61 0.58 0.55 0.56 0.59 0.60 0.60 0.56 0.55
1.59 1.53 1.43 1.35 1.33 1.30 1.20 1.05 0.93 0.86 0.73 0.69 0.64 0.61 0.59 0.56 0.48 0.43 0.39 0.38 0.34 0.35 0.44 0.49 0.45 0.41 0.45 0.49 0.63 0.79 0.88 0.87 0.77 0.67 0.64 0.62 0.59 0.59 0.61 0.63 0.61 0.59 0.59
1.64 1.59 1.46 1.45 1.50 1.45 1.36 1.26 1.10 1.00 0.90 0.83 0.80 0.71 0.70 0.71 0.62 0.48 0.42 0.41 0.40 0.41 0.48 0.49 0.43 0.40 0.43 0.40 0.44 0.59 0.75 0.85 0.85 0.75 0.68 0.64 0.64 0.64 0.66 0.69 0.69 0.65 0.64
1.90 1.79 1.58 1.54 1.58 1.47 1.38 1.41 1.42 1.32 1.17 1.07 1.00 0.84 0.75 0.73 0.68 0.53 0.43 0.41 0.42 0.44 0.46 0.46 0.43 0.39 0.37 0.33 0.36 0.43 0.54 0.69 0.79 0.81 0.76 0.72 0.72 0.74 0.77 0.82 0.84 0.82 0.81
1.87 1.88 1.85 1.75 1.75 1.71 1.61 1.52 1.54 1.55 1.45 1.35 1.26 1.16 0.94 0.80 0.67 0.57 0.48 0.44 0.45 0.48 0.46 0.45 0.43 0.40 0.36 0.33 0.31 0.34 0.43 0.57 0.71 0.82 0.85 0.84 0.83 0.87 0.93 0.97 0.99 0.98 0.97
1.91 1.85 1.90 1.92 1.90 1.86 1.75 1.66 1.60 1.57 1.57 1.50 1.43 1.45 1.16 0.87 0.68 0.61 0.53 0.48 0.46 0.47 0.49 0.51 0.47 0.43 0.40 0.37 0.34 0.35 0.38 0.44 0.58 0.79 0.96 1.00 0.99 1.01 1.07 1.14 1.18 1.21 1.17
1.93 1.90 1.88 1.89 1.92 1.87 1.78 1.80 1.79 1.63 1.63 1.63 1.57 1.43 1.22 0.96 0.86 0.72 0.61 0.57 0.52 0.48 0.48 0.49 0.48 0.45 0.44 0.42 0.40 0.42 0.44 0.46 0.56 0.78 1.02 1.14 1.17 1.21 1.32 1.42 1.49 1.48 1.39
1.86 1.81 1.81 1.83 1.82 1.83 1.79 1.81 1.84 1.82 1.72 1.67 1.62 1.55 1.47 1.25 1.06 0.98 0.81 0.68 0.65 0.58 0.56 0.55 0.54 0.52 0.49 0.48 0.46 0.50 0.56 0.57 0.66 0.81 1.01 1.19 1.30 1.38 1.48 1.58 1.66 1.70 1.62
1.73 1.69 1.66 1.67 1.72 1.72 1.71 1.75 1.84 1.89 1.85 1.72 1.60 1.49 1.45 1.37 1.20 1.15 1.02 0.81 0.75 0.65 0.62 0.60 0.58 0.59 0.62 0.63 0.64 0.75 0.74 0.75 0.82 0.91 1.06 1.22 1.34 1.42 1.53 1.65 1.74 1.78 1.78
1.60 1.56 1.56 1.57 1.63 1.65 1.70 1.81 1.87 1.87 1.89 1.84 1.74 1.62 1.52 1.40 1.31 1.30 1.27 1.07 0.90 0.75 0.69 0.67 0.64 0.64 0.68 0.74 0.79 0.94 0.90 0.92 0.94 1.00 1.16 1.34 1.39 1.39 1.40 1.48 1.62 1.70 1.74
1.45 1.47 1.55 1.59 1.63 1.67 1.67 1.71 1.73 1.74 1.79 1.78 1.72 1.63 1.53 1.41 1.42 1.43 1.40 1.43 1.33 1.06 0.92 0.83 0.77 0.78 0.81 0.87 0.98 1.08 0.96 1.04 1.00 0.99 1.09 1.22 1.24 1.20 1.18 1.24 1.41 1.58 1.64
1.32 1.35 1.43 1.51 1.52 1.55 1.57 1.59 1.58 1.56 1.61 1.65 1.65 1.60 1.52 1.38 1.34 1.34 1.36 1.44 1.54 1.38 1.06 0.84 0.80 0.80 0.84 0.88 1.00 0.96 0.90 1.06 1.06 0.99 0.99 1.00 1.00 0.98 0.97 0.99 1.06 1.20 1.30
1.11 1.14 1.22 1.31 1.34 1.33 1.35 1.41 1.43 1.41 1.45 1.43 1.44 1.50 1.48 1.38 1.31 1.29 1.32 1.38 1.45 1.49 1.26 0.86 0.76 0.77 0.83 0.87 0.96 0.86 0.81 0.98 0.97 0.94 0.90 0.88 0.87 0.84 0.83 0.83 0.86 0.92 1.00
1.00 1.04 1.07 1.13 1.17 1.18 1.19 1.22 1.22 1.25 1.31 1.31 1.29 1.30 1.31 1.31 1.34 1.32 1.32 1.36 1.40 1.45 1.41 1.03 0.84 0.83 0.91 0.92 0.93 0.86 0.79 0.77 0.78 0.90 0.85 0.80 0.78 0.77 0.76 0.75 0.75 0.76 0.78
0.89 0.89 0.92 0.96 0.97 0.97 0.98 1.03 1.06 1.09 1.13 1.16 1.15 1.18 1.18 1.19 1.23 1.25 1.30 1.34 1.36 1.36 1.37 1.20 0.96 0.87 0.85 0.84 0.83 0.81 0.76 0.71 0.67 0.81 0.80 0.76 0.74 0.71 0.69 0.68 0.71 0.73 0.73
0.92 0.83 0.80 0.82 0.83 0.84 0.84 0.86 0.88 0.91 0.95 1.00 1.04 1.05 1.07 1.12 1.17 1.17 1.19 1.19 1.19 1.20 1.22 1.19 1.01 0.86 0.79 0.75 0.76 0.73 0.69 0.65 0.60 0.66 0.70 0.72 0.72 0.71 0.71 0.70 0.72 0.72 0.69
0.83 0.79 0.74 0.71 0.71 0.75 0.78 0.80 0.81 0.82 0.85 0.89 0.95 1.00 1.02 1.04 1.05 1.06 1.10 1.10 1.08 1.08 1.08 1.10 1.03 0.93 0.86 0.81 0.83 0.82 0.77 0.70 0.65 0.59 0.66 0.68 0.71 0.71 0.66 0.63 0.62 0.66 0.67
0.72 0.71 0.69 0.68 0.65 0.67 0.71 0.75 0.78 0.80 0.82 0.85 0.87 0.91 0.98 1.09 1.11 1.06 1.03 1.02 1.03 1.07 1.10 1.14 1.09 0.95 0.82 0.78 0.78 0.73 0.74 0.75 0.74 0.69 0.68 0.63 0.58 0.54 0.52 0.55 0.58 0.63 0.68
0.65 0.69 0.70 0.71 0.72 0.75 0.92 0.89 0.82 0.83 0.87 0.86 0.84 0.82 0.84 0.92 0.94 0.96 0.95 0.92 0.96 1.05 1.16 1.19 1.06 0.87 0.70 0.63 0.63 0.69 0.76 0.83 0.77 0.59 0.60 0.61 0.58 0.57 0.52 0.49 0.59 0.63 0.65
0.75 0.80 0.84 0.87 0.87 0.93 1.04 0.95 0.91 0.82 0.83 0.86 0.83 0.77 0.72 0.70 0.74 0.68 0.74 0.78 0.80 0.89 0.93 0.85 0.78 0.68 0.61 0.60 0.70 0.80 0.78 0.77 0.66 0.52 0.59 0.65 0.60 0.59 0.52 0.52 0.61 0.58 0.59
1.00 1.03 1.07 1.08 1.08 1.07 1.06 0.95 0.92 0.80 0.76 0.74 0.69 0.62 0.58 0.53 0.52 0.55 0.58 0.66 0.64 0.63 0.64 0.60 0.57 0.54 0.54 0.56 0.67 0.82 0.84 0.83 0.69 0.56 0.56 0.62 0.53 0.51 0.50 0.51 0.59 0.58 0.58
1.14 1.10 1.07 1.05 1.01 0.97 0.95 0.84 0.76 0.65 0.63 0.60 0.56 0.52 0.51 0.47 0.55 0.61 0.59 0.61 0.51 0.46 0.51 0.57 0.60 0.60 0.63 0.63 0.64 0.77 0.89 0.98 0.87 0.61 0.49 0.53 0.47 0.45 0.48 0.48 0.50 0.55 0.56
0.91 0.86 0.83 0.80 0.77 0.72 0.71 0.66 0.62 0.54 0.51 0.47 0.45 0.46 0.52 0.51 0.58 0.64 0.58 0.54 0.47 0.41 0.42 0.47 0.52 0.55 0.54 0.57 0.64 0.65 0.79 1.05 0.95 0.71 0.42 0.49 0.52 0.59 0.76 0.51 0.43 0.45 0.49